EKEB

Esbjerg

Airport
ICAO code
EKEB
Summary
ICAO Region
EUR
ICAO Territory
Location

Esbjerg,

Elevation
97 ft
Coordinates
55° 31' 33" N , 8° 33' 12" E
KCC
Metar
Observation
EKEB 062320Z AUTO 16010KT 5000 OVC002/// 03/03 Q1040
Station
Esbjerg
Date/Time
2023-02-06 23:20:00
Wind direction
160°
Wind speed
10 kts
Lowest cloud amount
overcast
Temperature
3°C
Dew point
3°C
Humidity
100%
QNH
1040 hPa
Weather condition
n/a

Description

Esbjerg Airport (IATA: EBJ) is a small airport located 5 nm northeast of Esbjerg, Denmark.

Climatology

Temperate Marine climate/Oceanic climate (Köppen climate classification Cfb). Moderately cool summer and comparatively warm winter with a temperature range of only 14°C. Prevailing south-westerly winds from the Atlantic Ocean.

Runways

Designator Length Width Surface Rops
8/26 2599 45 ASP Yes/Yes

Airport map

Aerial View

SKYbrary Partners:

Safety knowledge contributed by: